CAPE
0 0 0 0 0 0 0 0 0 0 0 0 0 0 0 0 0 0 0 0 0 0 0 0 0 287 653 538 58 128 119 34 166 43 20 125 268 446 276 134 22 68 0 0 40
0 0 0 0 0 0 0 0 0 0 0 0 0 0 0 0 0 0 0 0 0 0 0 190 272 464 418 499 446 219 140 155 301 114 63 64 313 140 311 341 277 270 0 0 23
0 0 0 0 0 0 0 0 0 0 0 0 0 0 0 0 0 11 0 0 0 46 131 159 176 361 226 85 86 67 18 9 73 149 227 223 240 53 194 308 320 193 0 26 244
0 0 0 0 0 0 0 0 0 0 0 0 0 0 0 0 39 5 0 0 0 59 75 29 53 15 37 48 91 5 39 78 146 264 192 203 122 141 22 109 157 134 0 187 321
0 0 0 0 0 0 0 0 0 0 0 0 0 0 0 0 0 21 0 0 0 79 9 7 9 61 15 0 0 7 14 63 62 17 3 147 263 243 76 100 30 38 0 198 514
0 0 0 0 0 0 0 0 0 0 0 0 0 0 0 0 0 0 0 0 143 214 26 93 145 159 37 0 0 5 12 36 37 0 83 246 265 171 145 209 174 0 0 0 376
0 1 0 0 0 0 0 0 0 0 0 0 0 0 0 0 0 0 0 0 104 189 251 285 232 26 2 8 0 0 39 38 56 28 4 118 259 221 276 255 128 0 0 0 0
0 0 0 0 0 0 0 0 0 0 0 0 0 0 0 0 0 0 0 0 156 481 556 432 77 42 15 0 8 14 11 24 30 63 51 77 168 210 211 263 181 39 41 5 8
0 0 0 0 0 0 0 0 0 0 0 0 0 0 0 0 0 0 0 0 117 457 489 187 68 28 0 14 1 2 5 2 0 31 74 19 10 230 214 248 242 201 172 56 9
0 0 0 0 0 0 0 0 0 0 0 0 0 0 0 0 0 0 0 13 14 454 384 174 143 160 10 2 0 1 5 3 0 6 19 42 35 30 230 266 227 247 170 163 93
0 0 0 0 0 0 0 0 0 0 0 0 0 0 0 0 0 1 25 49 148 204 233 103 168 97 96 21 2 7 0 0 3 6 0 3 27 128 202 224 271 284 228 229 211
0 0 0 0 0 0 0 0 0 0 0 0 0 0 0 0 0 0 23 84 190 198 35 81 59 136 130 54 29 1 0 1 1 1 5 1 32 90 116 115 191 271 276 194 145
0 0 0 0 0 0 0 0 0 0 0 0 0 0 0 0 0 0 0 2 5 75 56 74 2 99 163 97 40 0 0 0 0 0 56 34 30 53 45 1 8 142 165 97 72
0 0 0 0 0 0 0 0 0 0 0 0 0 0 0 0 0 0 0 0 0 11 0 0 0 19 55 67 34 0 0 0 0 0 0 32 0 0 26 63 18 46 94 66 53
0 0 0 0 0 0 0 0 0 0 0 0 0 0 0 0 0 0 0 0 0 0 0 0 0 4 24 39 14 0 0 0 0 0 0 0 5 0 0 0 4 6 75 97 91
0 0 0 0 0 0 0 0 0 0 0 0 0 0 0 0 0 0 0 0 0 0 0 0 0 0 0 0 0 0 0 0 0 0 0 0 0 0 0 0 0 5 12 22 132
0 0 0 0 0 0 0 0 0 0 0 0 0 0 0 0 0 0 0 0 0 0 0 0 0 0 0 0 0 0 0 0 0 0 0 0 3 0 0 0 0 0 0 21 46
0 0 0 0 0 0 0 0 0 0 0 0 0 0 0 0 0 0 0 0 0 0 0 0 0 0 0 0 0 0 0 0 0 0 0 0 0 0 0 0 0 0 1 4 60
0 0 0 0 0 0 0 0 0 0 0 0 0 0 0 0 0 0 0 0 0 0 0 0 0 0 0 0 0 0 0 0 0 0 0 0 0 0 0 0 0 0 4 33 12
0 0 0 0 0 0 0 0 0 0 0 0 0 0 0 0 0 0 0 0 0 0 0 0 0 0 0 0 0 0 0 0 0 0 0 0 0 0 0 0 0 47 244 245 106
0 0 0 0 0 0 0 0 0 0 0 0 0 0 0 0 0 0 0 0 0 0 0 0 0 0 0 0 0 0 0 0 0 0 0 0 0 0 0 0 0 11 310 290 119
0 0 0 0 0 0 0 0 0 0 0 0 0 0 0 0 0 0 0 0 0 0 0 0 0 0 0 0 0 0 0 0 0 0 0 0 0 0 0 0 16 6 8 73 266
0 0 0 0 0 0 0 0 0 0 0 0 0 0 0 0 0 0 0 0 0 0 0 0 0 0 0 0 0 0 0 0 0 0 0 0 0 0 0 0 207 319 131 0 36
0 0 0 0 0 0 0 0 0 0 0 0 0 0 0 0 0 0 0 0 0 0 0 0 0 0 0 0 0 0 0 0 0 0 0 0 0 0 0 0 227 199 192 73 41
0 0 0 0 0 0 0 0 0 0 0 0 0 0 0 0 0 0 0 0 0 0 0 0 0 0 0 0 0 0 0 0 0 0 0 0 0 0 0 0 0 116 24 122 123
0 0 0 0 0 0 0 0 0 0 0 0 0 0 0 0 0 0 0 0 0 0 0 0 0 0 0 0 0 0 0 0 0 0 0 0 0 0 0 0 0 0 213 147 55
0 0 0 0 0 0 0 0 0 0 0 0 0 0 0 0 0 0 0 0 0 0 0 0 0 0 0 0 0 0 0 0 0 0 0 0 0 0 0 0 0 0 0 24 119
CIN
-0 -0 -0 -0 -0 -0 -0 -0 -0 -0 -0 -0 -0 -0 -0 -0 -0 -0 -0 -0 -0 -0 -0 -0 -0 -184 -139 -151 -321 -258 -91 -67 -47 -88 -51 -85 -82 -104 -165 -146 -169 -56 -0 -0 -415
-0 -0 -0 -0 -0 -0 -0 -0 -0 -0 -0 -0 -0 -0 -0 -0 -0 -0 -0 -0 -0 -0 -0 -165 -151 -170 -168 -163 -165 -146 -122 -55 -56 -72 -110 -109 -55 -113 -113 -144 -142 -141 -0 -0 -423
-0 -0 -0 -0 -0 -0 -0 -0 -0 -0 -0 -0 -0 -0 -0 -0 -0 -92 -0 -0 -0 -337 -247 -219 -220 -175 -159 -288 -230 -233 -120 -86 -106 -98 -89 -95 -98 -175 -131 -142 -145 -138 -0 -367 -301
-0 -0 -0 -0 -0 -0 -0 -0 -0 -0 -0 -0 -0 -0 -0 -0 -15 -175 -0 -0 -0 -362 -271 -234 -243 -217 -202 -182 -214 -146 -146 -125 -117 -98 -110 -74 -126 -130 -171 -132 -197 -216 -0 -317 -282
-0 -0 -0 -0 -0 -0 -0 -0 -0 -0 -0 -0 -0 -0 -0 -0 -0 -403 -0 -0 -0 -259 -166 -146 -141 -182 -177 -0 -0 -181 -142 -164 -138 -124 -120 -108 -109 -96 -126 -196 -287 -319 -0 -310 -234
-0 -0 -0 -0 -0 -0 -0 -0 -0 -0 -0 -0 -0 -0 -0 -0 -0 -49 -0 -0 -285 -184 -156 -156 -192 -235 -190 -0 -0 -171 -184 -143 -112 -8 -76 -88 -99 -103 -145 -203 -207 -0 -0 -0 -234
-0 -0 -0 -0 -0 -0 -0 -0 -0 -0 -0 -0 -0 -0 -0 -0 -0 -0 -0 -0 -254 -200 -110 -248 -241 -194 -13 -144 -0 -0 -150 -102 -91 -88 -99 -114 -92 -105 -181 -254 -262 -0 -0 -0 -0
-0 -0 -0 -0 -0 -0 -0 -0 -0 -0 -0 -0 -0 -0 -0 -0 -0 -0 -0 -0 -340 -237 -209 -263 -312 -267 -197 -0 -162 -150 -173 -66 -83 -80 -74 -71 -87 -187 -234 -262 -290 -380 -429 -462 -445
-0 -0 -0 -0 -0 -0 -0 -0 -0 -0 -0 -0 -0 -0 -0 -0 -0 -0 -0 -0 -283 -252 -271 -328 -310 -227 -0 -172 -28 -151 -67 -71 -0 -95 -74 -90 -49 -158 -272 -273 -276 -306 -353 -427 -405
-0 -0 -0 -0 -0 -0 -0 -0 -0 -0 -0 -0 -0 -0 -0 -0 -0 -0 -0 -227 -190 -255 -260 -250 -221 -137 -129 -77 -0 -58 -89 -79 -0 -120 -133 -110 -114 -203 -219 -255 -255 -271 -325 -378 -362
-0 -0 -0 -0 -0 -0 -0 -0 -0 -0 -0 -0 -0 -0 -0 -0 -0 -97 -271 -191 -242 -219 -102 -197 -82 -40 -72 -120 -126 -164 -0 -0 -80 -116 -0 -63 -141 -124 -220 -246 -240 -293 -299 -309 -319
-0 -0 -0 -0 -0 -0 -0 -0 -0 -0 -0 -0 -0 -0 -0 -0 -0 -0 -143 -85 -99 -85 -188 -126 -74 -74 -116 -128 -111 -109 -0 -25 -39 -67 -116 -104 -121 -163 -248 -307 -266 -243 -275 -280 -292
-0 -0 -0 -0 -0 -0 -0 -0 -0 -0 -0 -0 -0 -0 -0 -0 -0 -0 -0 -33 -39 -51 -172 -137 -138 -156 -116 -64 -87 -7 -0 -0 -0 -0 -126 -132 -142 -175 -236 -160 -124 -267 -286 -313 -296
-0 -0 -0 -0 -0 -0 -0 -0 -0 -0 -0 -0 -0 -0 -0 -0 -0 -0 -0 -0 -0 -12 -0 -0 -0 -160 -98 -98 -76 -0 -0 -0 -0 -0 -0 -163 -0 -0 -170 -219 -262 -315 -270 -296 -312
-0 -0 -0 -0 -0 -0 -0 -0 -0 -0 -0 -0 -0 -0 -0 -0 -0 -0 -0 -0 -0 -0 -0 -0 -0 -81 -111 -82 -58 -0 -0 -0 -0 -0 -0 -0 -186 -0 -0 -4 -149 -276 -276 -300 -287
-0 -0 -0 -0 -0 -0 -0 -0 -0 -0 -0 -0 -0 -0 -0 -0 -0 -0 -0 -0 -0 -0 -0 -0 -0 -0 -0 -0 -0 -0 -0 -0 -0 -0 -0 -0 -0 -0 -0 -33 -0 -222 -290 -333 -294
-0 -0 -0 -0 -0 -0 -0 -0 -0 -0 -0 -0 -0 -0 -0 -0 -0 -0 -0 -0 -0 -0 -0 -0 -0 -0 -0 -0 -0 -0 -0 -0 -0 -0 -0 -0 -42 -0 -0 -0 -0 -0 -0 -297 -360
-0 -0 -0 -0 -0 -0 -0 -0 -0 -0 -0 -0 -0 -0 -0 -0 -0 -0 -0 -0 -0 -0 -0 -0 -0 -0 -0 -0 -0 -0 -0 -0 -0 -0 -0 -0 -1 -0 -0 -0 -0 -0 -109 -388 -345
-0 -0 -0 -0 -0 -0 -0 -0 -0 -0 -0 -0 -0 -0 -0 -0 -0 -0 -0 -0 -0 -0 -0 -0 -0 -0 -0 -0 -0 -0 -0 -0 -0 -0 -0 -0 -0 -0 -0 -0 -0 -0 -286 -306 -363
-0 -0 -0 -0 -0 -0 -0 -0 -0 -0 -0 -0 -0 -0 -0 -0 -0 -0 -0 -0 -0 -0 -0 -0 -0 -0 -0 -0 -0 -0 -0 -0 -0 -0 -0 -0 -0 -0 -0 -0 -0 -199 -194 -281 -330
-0 -0 -0 -0 -0 -0 -0 -0 -0 -0 -0 -0 -0 -0 -0 -0 -0 -0 -0 -0 -0 -0 -0 -0 -0 -0 -0 -0 -0 -0 -0 -0 -0 -0 -0 -0 -0 -0 -0 -0 -0 -351 -228 -292 -292
-0 -0 -0 -0 -0 -0 -0 -0 -0 -0 -0 -0 -0 -0 -0 -0 -0 -0 -0 -0 -0 -0 -0 -0 -0 -0 -0 -0 -0 -0 -0 -0 -0 -0 -0 -0 -0 -0 -0 -0 -195 -170 -139 -444 -289
-0 -0 -0 -0 -0 -0 -0 -0 -0 -0 -0 -0 -0 -0 -0 -0 -0 -0 -0 -0 -0 -0 -0 -0 -0 -0 -0 -0 -0 -0 -0 -0 -0 -0 -0 -0 -0 -0 -0 -0 -195 -174 -177 -23 -330
-0 -0 -0 -0 -0 -0 -0 -0 -0 -0 -0 -0 -0 -0 -0 -0 -0 -0 -0 -0 -0 -0 -0 -0 -0 -0 -0 -0 -0 -0 -0 -0 -0 -0 -0 -0 -0 -0 -0 -0 -210 -196 -179 -249 -350
-0 -0 -0 -0 -0 -0 -0 -0 -0 -0 -0 -0 -0 -0 -0 -0 -0 -0 -0 -0 -0 -0 -0 -0 -0 -0 -0 -0 -0 -0 -0 -0 -0 -0 -0 -0 -0 -0 -0 -0 -0 -182 -205 -134 -139
-0 -0 -0 -0 -0 -0 -0 -0 -0 -0 -0 -0 -0 -0 -0 -0 -0 -0 -0 -0 -0 -0 -0 -0 -0 -0 -0 -0 -0 -0 -0 -0 -0 -0 -0 -0 -0 -0 -0 -0 -0 -0 -141 -170 -127
-0 -0 -0 -0 -0 -0 -0 -0 -0 -0 -0 -0 -0 -0 -0 -0 -0 -0 -0 -0 -0 -0 -0 -0 -0 -0 -0 -0 -0 -0 -0 -0 -0 -0 -0 -0 -0 -0 -0 -0 -0 -0 -0 -101 -159
Wind_Speed
20 20 20 20 20 19 19 18 17 16 14 12 11 10 10 10 11 14 19 18 21 22 21 24 21 20 6 14 15 16 14 14 16 15 12 17 16 16 14 15 15 9 9 12 19
18 20 22 22 22 21 20 20 19 18 16 14 13 11 10 10 12 17 18 23 26 26 23 21 18 18 13 16 16 15 16 16 15 14 14 12 17 16 14 14 14 17 9 14 17
16 19 21 23 24 24 23 22 21 19 18 16 14 13 11 11 10 18 26 27 27 25 21 20 18 18 17 18 16 16 16 14 15 15 15 15 19 18 14 12 14 17 19 21 18
12 16 19 22 23 24 25 24 22 21 20 18 16 15 13 13 15 20 26 27 28 23 19 18 20 15 15 17 16 16 16 17 16 14 15 17 20 19 14 10 14 19 22 24 24
13 13 15 18 21 24 25 25 24 23 21 20 18 15 14 13 8 22 25 27 27 23 19 18 14 15 14 16 14 14 16 15 16 16 16 16 19 18 15 11 16 22 25 28 30
18 16 15 15 18 22 24 25 25 25 23 21 20 18 15 13 14 20 22 25 23 21 11 14 12 8 10 14 14 13 15 15 13 13 11 17 17 17 13 14 20 23 27 27 29
22 20 17 16 15 18 22 24 25 25 24 22 21 18 15 15 14 19 20 22 23 20 13 10 14 11 12 12 10 11 11 12 15 13 11 17 17 18 13 17 20 23 26 29 28
23 23 21 19 16 14 17 23 25 25 25 21 18 16 14 13 15 17 18 21 21 17 14 12 11 13 14 14 11 8 11 11 15 13 13 16 15 16 18 18 20 22 23 27 31
24 23 22 20 17 7 9 22 25 21 12 12 14 16 16 9 6 18 14 17 9 17 15 13 14 15 13 12 14 11 14 18 16 17 13 15 16 16 18 19 18 20 22 25 29
25 23 23 23 19 17 17 14 12 13 10 7 13 17 19 12 9 13 16 7 15 11 16 16 16 16 12 13 14 15 16 15 15 18 20 15 15 13 13 19 21 21 23 23 27
25 23 23 23 20 17 16 13 12 13 14 10 13 16 15 17 16 1 4 7 11 16 18 20 19 20 16 18 18 18 17 13 13 13 19 17 10 14 20 18 20 20 21 24 26
25 23 23 21 19 17 15 14 14 15 21 18 21 29 31 24 22 22 3 3 9 13 14 18 25 25 14 12 20 18 14 17 10 14 17 21 15 17 18 18 20 18 19 23 25
26 23 21 21 18 17 15 15 16 18 14 17 7 7 26 16 21 27 3 1 12 13 11 21 25 25 13 18 24 23 21 20 28 27 23 19 19 16 15 17 15 18 20 22 25
26 22 19 18 17 17 16 15 14 14 13 12 11 14 5 14 20 26 19 11 14 14 24 24 23 1 8 22 18 24 27 32 10 28 29 20 28 20 11 14 11 15 19 25 25
24 21 19 12 14 17 14 13 12 10 14 11 9 11 10 12 11 13 25 23 19 19 17 29 14 11 14 6 14 32 32 29 16 30 26 12 22 22 6 7 7 19 23 23 26
22 20 19 12 15 15 13 14 10 8 12 10 11 11 8 17 25 19 14 16 19 22 17 26 15 13 7 6 9 23 34 33 19 19 21 15 5 25 24 3 10 19 24 23 25
22 19 4 10 15 12 14 13 14 13 12 12 13 14 10 17 17 19 23 18 16 17 8 21 16 18 20 23 17 18 23 25 22 19 17 18 9 7 27 9 8 21 21 19 19
23 18 5 16 14 16 15 12 11 12 13 14 14 10 10 13 13 15 12 14 13 10 15 18 20 11 16 17 20 20 20 22 23 20 26 19 17 20 25 23 12 18 4 15 17
19 15 16 16 14 10 14 13 13 14 15 15 13 13 16 15 14 13 12 14 15 15 16 15 9 9 15 22 18 18 27 20 21 20 22 19 20 27 25 17 11 10 11 8 2
14 15 15 14 8 12 14 13 13 15 16 16 16 17 17 18 16 16 15 17 18 19 17 19 15 16 21 15 21 21 21 16 19 21 23 22 21 23 28 19 12 11 14 13 20
14 14 16 13 13 13 14 14 13 15 15 17 17 17 15 18 18 16 18 17 22 23 20 23 21 21 24 23 25 22 18 15 13 15 19 21 18 22 28 22 17 20 16 18 18
16 14 18 8 13 14 14 18 17 17 17 17 18 17 19 20 19 15 13 17 25 25 25 26 20 23 24 26 19 13 19 18 16 21 20 19 19 25 29 21 12 15 17 20 16
17 17 17 13 14 15 16 14 15 18 19 19 20 20 21 20 18 16 18 16 27 25 24 26 22 28 25 16 18 19 22 19 17 17 19 22 18 29 30 22 15 15 16 14 13
17 16 17 13 13 15 18 19 16 18 19 19 21 20 23 22 21 19 23 19 26 22 25 21 19 18 20 20 21 21 20 21 19 23 24 25 31 31 31 29 20 17 15 16 12
18 16 17 19 20 18 16 17 19 21 21 23 21 22 24 23 27 24 22 25 27 20 22 23 22 20 21 26 25 24 21 21 23 23 28 31 28 28 31 30 29 22 18 12 10
17 18 20 19 20 18 19 21 21 22 23 24 24 25 23 24 21 27 26 24 19 20 26 22 20 22 22 26 26 33 29 23 21 23 24 27 27 31 32 28 26 27 22 18 15
20 19 18 20 20 19 20 22 22 23 21 22 24 24 25 24 21 20 19 20 18 21 21 19 19 23 24 25 31 31 26 23 22 23 23 27 27 33 34 32 27 28 30 26 21
Wind_Direction
257 255 254 253 253 255 258 259 260 259 248 238 231 229 223 220 220 197 164 183 149 113 91 112 121 151 327 350 236 192 174 167 162 158 204 174 139 128 143 106 153 163 58 99 120
251 252 254 256 254 252 253 260 260 260 254 244 242 242 230 217 182 163 186 147 129 123 108 106 116 113 343 185 195 183 197 150 152 208 210 202 167 122 108 115 129 163 54 114 124
252 249 248 251 256 257 254 256 260 258 257 250 247 250 226 203 201 47 130 131 125 124 112 108 100 100 178 186 177 178 196 194 209 213 212 205 182 159 109 123 150 134 122 133 135
249 249 246 245 246 251 259 259 257 257 255 253 247 249 240 191 6 120 125 135 136 125 91 43 107 198 204 208 223 235 215 223 219 205 220 204 176 180 144 156 146 141 134 136 144
256 245 241 238 238 242 244 254 260 252 255 257 251 239 316 274 293 112 121 127 131 133 110 54 354 230 235 209 204 211 241 214 213 232 231 166 163 185 172 196 113 130 131 142 148
273 256 242 233 231 231 237 245 249 255 252 257 255 248 307 319 52 111 117 129 148 150 229 323 317 296 247 231 216 212 237 222 239 216 205 132 167 162 141 98 114 126 144 145 152
286 271 253 235 221 221 225 230 241 247 256 257 258 273 303 302 88 122 124 143 152 177 236 203 344 211 248 267 233 200 212 231 328 266 213 130 156 177 156 105 124 131 148 158 156
294 287 270 250 224 206 207 221 235 245 253 273 275 284 305 300 97 119 131 172 190 217 237 226 245 291 277 261 255 254 220 288 290 303 230 202 184 197 135 121 129 138 144 160 175
303 297 288 270 234 157 156 245 253 274 320 315 299 289 290 316 57 144 124 137 170 229 255 301 255 274 265 275 312 284 279 287 281 287 265 276 232 181 144 148 144 146 149 157 171
309 306 307 319 354 353 336 336 337 318 330 14 303 285 267 290 335 129 143 10 260 288 267 259 267 269 272 277 271 270 280 259 245 275 278 220 215 173 145 168 169 160 163 160 169
311 308 319 340 6 16 11 14 339 317 298 298 291 277 286 276 282 68 95 302 314 271 282 251 274 268 215 275 276 269 266 237 237 234 263 213 187 187 178 170 175 173 170 171 172
312 312 328 327 25 32 27 16 347 326 280 208 206 249 239 258 272 263 350 303 299 300 308 287 270 233 193 189 225 247 238 274 248 295 246 227 208 195 175 183 180 177 174 176 175
312 311 309 333 36 46 58 62 9 298 312 286 315 290 220 277 274 242 66 334 297 296 296 294 286 242 322 282 231 252 258 251 286 340 322 260 240 213 196 194 194 195 184 180 180
307 302 284 15 51 66 108 123 269 43 326 325 346 275 267 269 276 200 159 297 296 295 284 294 302 83 328 293 267 251 284 277 266 325 292 301 288 248 192 194 202 184 182 186 185
298 284 269 103 150 91 163 256 226 240 15 313 330 243 284 111 298 287 198 245 285 294 301 269 310 319 311 302 279 251 263 254 239 303 333 6 307 255 151 165 163 177 182 182 185
289 273 266 29 130 163 238 251 233 243 328 312 225 273 321 241 224 255 286 273 282 282 302 231 312 319 318 323 210 236 288 283 329 328 324 348 34 274 296 134 145 173 183 184 182
287 264 186 26 119 202 254 247 20 1 262 290 281 295 360 225 195 210 203 290 266 269 229 309 319 317 314 306 327 334 321 321 316 323 323 340 345 2 295 305 140 226 176 173 177
289 276 119 150 282 293 307 343 332 289 273 304 275 281 306 266 295 295 81 129 295 153 185 212 276 101 357 346 330 332 339 326 311 312 314 323 318 324 317 324 347 283 315 160 168
280 309 288 279 134 352 292 301 294 274 234 259 259 279 255 269 250 277 332 264 233 268 250 4 46 75 7 335 345 344 318 336 322 316 314 321 317 309 319 333 359 27 345 338 150
319 296 298 285 16 315 293 300 315 252 301 309 308 295 296 284 308 310 324 289 270 276 250 255 351 339 326 353 335 338 332 338 338 316 305 309 313 321 326 307 322 350 334 351 300
321 329 306 315 293 306 299 297 340 307 342 331 321 324 345 308 325 342 320 339 309 291 319 305 309 321 325 337 327 330 337 337 344 342 319 309 313 342 320 303 320 312 323 329 330
318 314 307 347 304 295 295 278 284 315 327 339 341 342 330 332 329 345 348 335 315 318 315 308 326 322 328 324 341 14 348 341 322 309 313 315 309 333 330 329 334 333 327 307 348
313 301 306 304 294 291 286 308 315 312 322 328 328 334 334 339 343 353 346 349 327 326 322 315 321 313 319 336 342 340 336 338 332 324 305 303 310 325 323 324 330 329 330 339 324
313 301 306 325 318 298 292 298 311 320 328 336 329 337 332 332 334 335 329 345 334 340 331 330 327 324 320 323 326 325 331 332 328 309 301 298 297 308 310 312 312 320 328 330 329
322 308 308 293 291 300 306 308 308 306 319 324 329 339 335 329 317 321 337 332 330 339 340 338 324 322 320 316 317 319 321 320 314 307 297 297 298 302 307 304 293 305 313 336 342
324 311 306 298 295 300 303 308 310 310 313 315 320 323 330 326 334 322 330 336 343 340 334 336 332 329 326 323 324 315 318 316 307 305 298 300 298 305 294 304 306 298 287 295 306
330 326 316 299 297 299 302 302 309 312 318 328 326 327 324 330 339 340 339 334 331 331 336 336 336 331 324 326 323 321 328 329 323 316 305 295 300 301 293 291 296 300 290 275 276